Weather in Zarayskoye

Russia / Ivanovo Oblast     56°58′45″N   42°56′30″E
temp.,
°C
wind,
m/s
gust,
m/s
humid.,
%
clouds,
%
prec.,
mm/h
press.,
hPa
HPBL,
m
3 march, wed
wed300:00−5nw6138919 0.0 1004400
03:00−7nw6139027 0.0 1006402
06:00−8nw6129292 0.0 1007359
09:00−6nw6119196 0.1 1009475
12:00−5wnw7108898 0.1 1009665
15:00−3wnw698593 0.1 1009660
18:00−3w5129091 0.0 1006632
21:00−2w6139295 0.1 1005518
4 march, thu
thu400:00−2wsw6129399 0.1 1001495
03:00−3wsw6139599 0.4 999554
06:00−2wsw61294100 0.5 994474
09:000wnw61199100 2.2 992741
12:00−1wnw10148368 0.4 9921210
15:00−2wnw8138883 0.6 9951149
18:00−3nw61096100 0.5 997500
21:00−8nw3492100 0.6 99935
5 march, fri
fri500:00−11nnw339459 0.0 100021
03:00−13n239651 0.0 100221
06:00−15nnw22970 0.0 100420
09:00−12wnw129410 0.0 100583
12:00−7w238662 0.0 1005395
15:00−5w358681 0.1 1006653
18:00−8wsw3392100 0.0 100627
21:00−10w239686 0.1 100921
6 march, sat
sat600:00−9wnw339699 0.3 101052
03:00−13nw449698 0.3 101171
06:00−17nnw449778 0.0 101275
09:00−16nnw469062 0.0 1014216
12:00−12nw358229 0.0 1014683
15:00−11wnw458464 0.1 1013823
18:00−14wnw4792100 0.1 101391
21:00−17w349559 0.1 101336
7 march, sun
sun700:00−17wsw349840 0.0 101136
03:00−17ssw459855 0.0 100975
06:00−14s6109388 0.0 1005245
09:00−10ssw8149294 0.3 1001771
12:00−7ssw91492100 0.6 9961043
15:00−4ssw91491100 1.6 9931062
18:00−7nw61187100 1.5 991399
21:00−9wnw3689100 1.6 991116